Location: Monrovia
(34.7865°N, 86.7139°W)
Time: 22:06:27
(UTC+00:00)

Tsikada Rocket - Pass Details

Date: 14 July 2020
Orbit: 959 x 1008 km, 82.9° (Epoch: 08 August)

Event Time Altitude Azimuth Distance (km) Brightness Sun altitude
Rises 08:33:45 0° 346° (NNW) 3,743 7.6 -21.9°
Reaches altitude 10° 08:36:23 10° 340° (NNW) 2,790 6.7 -21.6°
Maximum altitude 08:42:25 45° 270° (W) 1,348 4.4 -20.7°
Enters shadow 08:44:16 36° 230° (SW) 1,541 4.5 -20.5°
